Location: Ceske Budejovice
(48.9830°N, 14.4670°E)
Time: 13:35:55
(UTC+02:00)

ISS - Pass Details

Date: 08 July 2022
Orbit: 412 x 420 km, 51.6° (Epoch: 18 August)

Event Time Altitude Azimuth Distance (km) Brightness Sun altitude
Rises 04:02:49 0° 283° (WNW) 2,363 -0.2 -8.5°
Reaches altitude 10° 04:04:57 10° 288° (WNW) 1,501 -1.2 -8.3°
Maximum altitude 04:08:16 56° 7° (N) 508 -3.0 -7.9°
Drops below altitude 10° 04:11:36 10° 87° (E) 1,504 -0.2 -7.6°
Sets 04:13:44 0° 92° (E) 2,369 0.7 -7.3°
